Simultaneous Nadir Overpasses (SNOs) Predictions

Prediction of SNOs between FY3D and TERRA Satellite Orbit:

Table of predicted SNOs for the next 14.0 days since TLE Epoch: 10/8/2022
Index Date (FY3D) Time (FY3D) Lat,Lon (FY3D) SZA (FY3D ) Date (TERRA) Time (TERRA) Lat,Lon (TERRA) SZA (TERRA ) Distance(km) Time Diff (sec)
1 10/08/2022 04:02:03 71.29, 120.84 77.10 10/08/2022 04:00:57 71.35, 118.32 77.11 89.92 66
2 10/10/2022 17:47:51 -72.24, 92.71 101.00 10/10/2022 17:48:42 -72.24, 92.80 101.00 2.91 51
3 10/10/2022 18:38:35 72.12, -99.75 78.90 10/10/2022 18:38:09 72.15, -99.73 78.92 2.76 26
4 10/13/2022 09:14:52 72.19, 41.08 79.95 10/13/2022 09:15:34 72.21, 41.00 79.97 3.31 42
5 10/13/2022 10:05:36 -72.14,-151.52 100.09 10/13/2022 10:05:03 -72.14,-151.49 100.10 1.10 33
6 10/16/2022 00:41:52 -72.22, -10.71 99.04 10/16/2022 00:42:26 -72.23, -10.71 99.03 0.94 34
7 10/16/2022 01:32:37 72.15, 156.74 80.91 10/16/2022 01:31:53 72.13, 156.75 80.88 2.78 44
8 10/18/2022 16:08:54 72.24, -62.47 81.95 10/18/2022 16:09:16 72.24, -62.42 81.96 1.66 22
9 10/18/2022 16:59:37 -72.14, 105.03 98.14 10/18/2022 16:58:46 -72.12, 105.00 98.16 2.57 51
10 10/21/2022 06:45:23 72.94, 77.05 83.57 10/21/2022 06:46:30 72.81, 79.25 83.48 73.12 67
11 10/21/2022 07:35:54 -72.24,-114.19 97.11 10/21/2022 07:36:09 -72.21,-114.23 97.13 3.21 15
12 10/21/2022 08:26:39 72.16, 53.26 82.84 10/21/2022 08:25:35 72.16, 53.33 82.83 2.24 64



Historial Predications of SNOs between FY3D and TERRA
